Location: Saint-Gilles les Bains
(21.0539°S, 55.2287°E)
Time: 02:32:51
(UTC+04:00)

Hubble Space Telescope - Pass Details

Date: 14 April 2024
Orbit: 512 x 516 km, 28.5° (Epoch: 17 May)

Event Time Altitude Azimuth Distance (km) Brightness Sun altitude
Exits shadow 04:41:24 42° 55° (NE) 741 1.7 -26.2°
Drops below altitude 10° 04:44:39 10° 99° (E) 1,748 4.4 -25.4°
Sets 04:46:58 0° 105° (ESE) 2,639 5.5 -24.9°
